Starlink 3232

operational
NORAD ID: 50809 Int'l Des: 2022-001 Owner: SPXS Country: US Constellation: starlink
LEOCIRCULAR

Über Starlink 3232

Beschreibung wird geladen...

Live-Position

3D-Globus wird geladen...

Nächste Überflüge

Höhenverlauf

Altitude vs Time

uPlot chart will show altitude changes over time

Zweizeiliger Elementsatz

1 50809U 22001G 25302.65502260 -.00001012 00000-0 -45518-4 0 9998
2 50809 53.2189 27.3538 0001655 105.0702 255.0473 15.08843383210767
Epoch: 29. Okt. 2025 • Age: 21 hours

Aktueller Status

Höhe 542.6 km
Geschwindigkeit 7.60 km/s
Subsatellitenpunkt 41.67°N, 71.16°W
Startdatum 6. Jan. 2022
Alter 3.8 years
Typ internet

Technische Details

Klassifizierung Payload
Masse 297.00 kg
Trockenmasse 275.00 kg
Gesamtmasse 297.00 kg
Länge 0.20 m
Durchmesser 2.80 m
Spannweite 9.00 m
Form Box + pan
Hersteller SPXS
Bus-Typ Starlink
Phasenstatus In Orbit
Besitzer/Staat SPXS/US

Große Konstellationen

Loading constellations...